Time,TemperatureF,DewpointF,PressureIn,WindDirection,WindDirectionDegrees,WindSpeedMPH,WindSpeedGustMPH,Humidity,HourlyPrecipIn,Conditions,Clouds,dailyrainin,SoftwareType,DateUTC
2013-08-09 00:01:00,66.6,64.2,30.04,East,100,0.0,0.0,92,0.00,,,0.00,WUHU216DAVISVP2,2013-08-09 05:01:00,
2013-08-09 00:06:00,66.5,64.1,30.04,ENE,64,0.0,0.0,92,0.00,,,0.00,WUHU216DAVISVP2,2013-08-09 05:06:00,
2013-08-09 00:11:00,66.3,63.9,30.04,ENE,65,0.0,0.0,92,0.00,,,0.00,WUHU216DAVISVP2,2013-08-09 05:11:00,
2013-08-09 00:16:00,66.2,63.8,30.04,NNE,15,0.0,0.0,92,0.00,,,0.00,WUHU216DAVISVP2,2013-08-09 05:16:00,
2013-08-09 00:21:00,66.0,63.6,30.04,NW,322,0.0,0.0,92,0.00,,,0.00,WUHU216DAVISVP2,2013-08-09 05:21:00,
2013-08-09 00:26:00,65.8,63.7,30.04,NW,322,0.0,0.0,93,0.00,,,0.00,WUHU216DAVISVP2,2013-08-09 05:26:00,
2013-08-09 00:31:00,65.7,63.6,30.05,NW,322,0.0,0.0,93,0.00,,,0.00,WUHU216DAVISVP2,2013-08-09 05:31:00,
2013-08-09 00:36:00,65.5,63.4,30.05,NW,322,0.0,0.0,93,0.00,,,0.00,WUHU216DAVISVP2,2013-08-09 05:36:00,
2013-08-09 00:41:00,65.3,63.2,30.05,NW,323,0.0,0.0,93,0.00,,,0.00,WUHU216DAVISVP2,2013-08-09 05:41:00,
2013-08-09 00:46:00,65.1,63.0,30.05,NW,322,0.0,0.0,93,0.00,,,0.00,WUHU216DAVISVP2,2013-08-09 05:46:00,
2013-08-09 00:51:00,64.9,62.8,30.05,NW,322,0.0,0.0,93,0.00,,,0.00,WUHU216DAVISVP2,2013-08-09 05:51:00,
2013-08-09 00:56:00,64.8,62.7,30.05,NW,324,0.0,0.0,93,0.00,,,0.00,WUHU216DAVISVP2,2013-08-09 05:56:00,
2013-08-09 01:01:00,64.7,62.6,30.05,NW,324,0.0,0.0,93,0.00,,,0.00,WUHU216DAVISVP2,2013-08-09 06:01:00,
2013-08-09 01:06:00,64.5,62.4,30.05,NW,324,0.0,0.0,93,0.00,,,0.00,WUHU216DAVISVP2,2013-08-09 06:06:00,
2013-08-09 01:11:00,64.3,62.5,30.05,NW,324,0.0,0.0,94,0.00,,,0.00,WUHU216DAVISVP2,2013-08-09 06:11:00,
2013-08-09 01:16:00,64.2,62.4,30.05,NW,324,0.0,0.0,94,0.00,,,0.00,WUHU216DAVISVP2,2013-08-09 06:16:00,
2013-08-09 01:21:00,64.0,62.2,30.05,NW,324,0.0,0.0,94,0.00,,,0.00,WUHU216DAVISVP2,2013-08-09 06:21:00,
2013-08-09 01:26:00,63.9,62.1,30.05,NW,324,0.0,0.0,94,0.00,,,0.00,WUHU216DAVISVP2,2013-08-09 06:26:00,
2013-08-09 01:31:00,63.7,61.9,30.05,NW,324,0.0,0.0,94,0.00,,,0.00,WUHU216DAVISVP2,2013-08-09 06:31:00,
2013-08-09 01:36:00,63.5,61.7,30.06,NW,324,0.0,0.0,94,0.00,,,0.00,WUHU216DAVISVP2,2013-08-09 06:36:00,
2013-08-09 01:41:00,63.4,61.6,30.06,NW,324,0.0,0.0,94,0.00,,,0.00,WUHU216DAVISVP2,2013-08-09 06:41:00,
2013-08-09 01:46:00,63.3,61.5,30.06,NW,324,0.0,0.0,94,0.00,,,0.00,WUHU216DAVISVP2,2013-08-09 06:46:00,
2013-08-09 01:51:00,63.1,61.3,30.06,NW,324,0.0,0.0,94,0.00,,,0.00,WUHU216DAVISVP2,2013-08-09 06:51:00,
2013-08-09 01:56:00,62.9,61.1,30.06,NW,324,0.0,0.0,94,0.00,,,0.00,WUHU216DAVISVP2,2013-08-09 06:56:00,
2013-08-09 02:01:00,62.7,61.2,30.06,NW,324,0.0,0.0,95,0.00,,,0.00,WUHU216DAVISVP2,2013-08-09 07:01:00,
2013-08-09 02:06:00,62.6,60.8,30.06,NW,324,0.0,0.0,94,0.00,,,0.00,WUHU216DAVISVP2,2013-08-09 07:06:00,
2013-08-09 02:11:00,62.5,61.0,30.06,NW,324,0.0,0.0,95,0.00,,,0.00,WUHU216DAVISVP2,2013-08-09 07:11:00,
2013-08-09 02:16:00,62.5,61.0,30.06,NW,324,0.0,0.0,95,0.00,,,0.00,WUHU216DAVISVP2,2013-08-09 07:16:00,
2013-08-09 02:21:00,62.4,60.9,30.06,NW,324,0.0,0.0,95,0.00,,,0.00,WUHU216DAVISVP2,2013-08-09 07:21:00,
2013-08-09 02:26:00,62.3,60.8,30.06,NW,324,0.0,0.0,95,0.00,,,0.00,WUHU216DAVISVP2,2013-08-09 07:26:00,
2013-08-09 02:31:00,62.2,60.7,30.06,NW,324,0.0,0.0,95,0.00,,,0.00,WUHU216DAVISVP2,2013-08-09 07:31:00,
2013-08-09 02:36:00,62.2,60.7,30.06,NW,324,0.0,0.0,95,0.00,,,0.00,WUHU216DAVISVP2,2013-08-09 07:36:00,
2013-08-09 02:41:00,62.2,60.7,30.06,NW,324,0.0,0.0,95,0.00,,,0.00,WUHU216DAVISVP2,2013-08-09 07:41:00,
2013-08-09 02:46:00,62.1,60.6,30.06,NW,324,0.0,0.0,95,0.00,,,0.00,WUHU216DAVISVP2,2013-08-09 07:46:00,
2013-08-09 02:51:00,62.0,60.5,30.06,NW,324,0.0,0.0,95,0.00,,,0.00,WUHU216DAVISVP2,2013-08-09 07:51:00,
2013-08-09 02:56:00,61.9,60.4,30.06,NW,324,0.0,0.0,95,0.00,,,0.00,WUHU216DAVISVP2,2013-08-09 07:56:00,
2013-08-09 03:01:00,61.8,60.6,30.06,NW,324,0.0,0.0,96,0.00,,,0.00,WUHU216DAVISVP2,2013-08-09 08:01:00,
2013-08-09 03:06:00,61.7,60.5,30.06,NW,324,0.0,0.0,96,0.00,,,0.00,WUHU216DAVISVP2,2013-08-09 08:06:00,
2013-08-09 03:11:00,61.7,60.5,30.06,NW,324,0.0,0.0,96,0.00,,,0.00,WUHU216DAVISVP2,2013-08-09 08:11:00,
2013-08-09 03:16:00,61.6,60.4,30.06,NW,324,0.0,0.0,96,0.00,,,0.00,WUHU216DAVISVP2,2013-08-09 08:16:00,
2013-08-09 03:21:00,61.6,60.4,30.06,NW,324,0.0,0.0,96,0.00,,,0.00,WUHU216DAVISVP2,2013-08-09 08:21:00,
2013-08-09 03:26:00,61.6,60.4,30.06,NW,324,0.0,0.0,96,0.00,,,0.00,WUHU216DAVISVP2,2013-08-09 08:26:00,
2013-08-09 03:31:00,61.6,60.4,30.06,NW,324,0.0,0.0,96,0.00,,,0.00,WUHU216DAVISVP2,2013-08-09 08:31:00,
2013-08-09 03:36:00,61.5,60.3,30.06,NW,324,0.0,0.0,96,0.00,,,0.00,WUHU216DAVISVP2,2013-08-09 08:36:00,
2013-08-09 03:41:00,61.5,60.3,30.06,NW,324,0.0,0.0,96,0.00,,,0.00,WUHU216DAVISVP2,2013-08-09 08:41:00,
2013-08-09 03:46:00,61.5,60.3,30.06,NW,324,0.0,0.0,96,0.00,,,0.00,WUHU216DAVISVP2,2013-08-09 08:46:00,
2013-08-09 03:51:00,61.4,60.2,30.06,NW,324,0.0,0.0,96,0.00,,,0.00,WUHU216DAVISVP2,2013-08-09 08:51:00,
2013-08-09 03:56:00,61.4,60.2,30.06,NW,324,0.0,0.0,96,0.00,,,0.00,WUHU216DAVISVP2,2013-08-09 08:56:00,
2013-08-09 04:01:00,61.3,60.1,30.06,NW,324,0.0,0.0,96,0.00,,,0.00,WUHU216DAVISVP2,2013-08-09 09:01:00,
2013-08-09 04:06:00,61.2,60.0,30.05,NW,324,0.0,0.0,96,0.00,,,0.00,WUHU216DAVISVP2,2013-08-09 09:06:00,
2013-08-09 04:11:00,61.1,60.0,30.05,NW,324,0.0,0.0,96,0.00,,,0.00,WUHU216DAVISVP2,2013-08-09 09:11:00,
2013-08-09 04:16:00,61.1,60.0,30.05,NW,324,0.0,0.0,96,0.00,,,0.00,WUHU216DAVISVP2,2013-08-09 09:16:00,
2013-08-09 04:21:00,61.0,59.9,30.06,NW,324,0.0,0.0,96,0.00,,,0.00,WUHU216DAVISVP2,2013-08-09 09:21:00,
2013-08-09 04:26:00,60.9,59.8,30.05,NW,324,0.0,0.0,96,0.00,,,0.00,WUHU216DAVISVP2,2013-08-09 09:26:00,
2013-08-09 04:31:00,60.8,59.7,30.06,NW,324,0.0,0.0,96,0.00,,,0.00,WUHU216DAVISVP2,2013-08-09 09:31:00,
2013-08-09 04:36:00,60.8,59.7,30.06,NW,324,0.0,0.0,96,0.00,,,0.00,WUHU216DAVISVP2,2013-08-09 09:36:00,
2013-08-09 04:41:00,60.7,59.6,30.06,NW,324,0.0,0.0,96,0.00,,,0.00,WUHU216DAVISVP2,2013-08-09 09:41:00,
2013-08-09 04:46:00,60.6,59.5,30.06,NW,324,0.0,0.0,96,0.00,,,0.00,WUHU216DAVISVP2,2013-08-09 09:46:00,
2013-08-09 04:51:00,60.5,59.4,30.06,NW,324,0.0,0.0,96,0.00,,,0.00,WUHU216DAVISVP2,2013-08-09 09:51:00,
2013-08-09 04:56:00,60.4,59.3,30.06,NW,324,0.0,0.0,96,0.00,,,0.00,WUHU216DAVISVP2,2013-08-09 09:56:00,
2013-08-09 05:01:00,60.4,59.3,30.06,NW,324,0.0,0.0,96,0.00,,,0.00,WUHU216DAVISVP2,2013-08-09 10:01:00,
2013-08-09 05:06:00,60.3,59.2,30.07,NW,324,0.0,0.0,96,0.00,,,0.00,WUHU216DAVISVP2,2013-08-09 10:06:00,
2013-08-09 05:11:00,60.3,59.2,30.07,NW,324,0.0,0.0,96,0.00,,,0.00,WUHU216DAVISVP2,2013-08-09 10:11:00,
2013-08-09 05:16:00,60.2,59.1,30.07,NW,324,0.0,0.0,96,0.00,,,0.00,WUHU216DAVISVP2,2013-08-09 10:16:00,
2013-08-09 05:21:00,60.2,59.0,30.07,NW,324,0.0,0.0,96,0.00,,,0.00,WUHU216DAVISVP2,2013-08-09 10:21:00,
2013-08-09 05:26:00,60.2,59.0,30.07,NW,324,0.0,0.0,96,0.00,,,0.00,WUHU216DAVISVP2,2013-08-09 10:26:00,
2013-08-09 05:31:00,60.1,58.9,30.07,NW,324,0.0,0.0,96,0.00,,,0.00,WUHU216DAVISVP2,2013-08-09 10:31:00,
2013-08-09 05:36:00,60.1,58.9,30.07,NW,324,0.0,0.0,96,0.00,,,0.00,WUHU216DAVISVP2,2013-08-09 10:36:00,
2013-08-09 05:41:00,60.0,59.1,30.08,NW,324,0.0,0.0,97,0.00,,,0.00,WUHU216DAVISVP2,2013-08-09 10:41:00,
2013-08-09 05:46:00,59.9,58.7,30.08,NW,324,0.0,0.0,96,0.00,,,0.00,WUHU216DAVISVP2,2013-08-09 10:46:00,
2013-08-09 05:51:00,59.8,58.6,30.08,NW,324,0.0,0.0,96,0.00,,,0.00,WUHU216DAVISVP2,2013-08-09 10:51:00,
2013-08-09 05:56:00,59.7,58.8,30.08,NW,324,0.0,0.0,97,0.00,,,0.00,WUHU216DAVISVP2,2013-08-09 10:56:00,
2013-08-09 06:01:00,59.7,58.8,30.08,NW,324,0.0,0.0,97,0.00,,,0.00,WUHU216DAVISVP2,2013-08-09 11:01:00,
2013-08-09 06:06:00,59.8,58.9,30.08,NW,323,0.0,0.0,97,0.00,,,0.00,WUHU216DAVISVP2,2013-08-09 11:06:00,
2013-08-09 06:11:00,59.7,58.5,30.08,NW,323,0.0,0.0,96,0.00,,,0.00,WUHU216DAVISVP2,2013-08-09 11:11:00,
2013-08-09 06:16:00,59.6,58.7,30.08,NW,323,0.0,0.0,97,0.00,,,0.00,WUHU216DAVISVP2,2013-08-09 11:16:00,
2013-08-09 06:21:00,59.5,58.3,30.09,NW,323,0.0,0.0,96,0.00,,,0.00,WUHU216DAVISVP2,2013-08-09 11:21:00,
2013-08-09 06:26:00,59.4,58.5,30.08,NW,323,0.0,0.0,97,0.00,,,0.00,WUHU216DAVISVP2,2013-08-09 11:26:00,
2013-08-09 06:31:00,59.3,58.4,30.09,NW,323,0.0,0.0,97,0.00,,,0.00,WUHU216DAVISVP2,2013-08-09 11:31:00,
2013-08-09 06:36:00,59.2,58.0,30.09,NW,323,0.0,0.0,96,0.00,,,0.00,WUHU216DAVISVP2,2013-08-09 11:36:00,
2013-08-09 06:41:00,59.2,58.3,30.09,NW,324,0.0,0.0,97,0.00,,,0.00,WUHU216DAVISVP2,2013-08-09 11:41:00,
2013-08-09 06:46:00,59.1,58.2,30.09,NW,323,0.0,0.0,97,0.00,,,0.00,WUHU216DAVISVP2,2013-08-09 11:46:00,
2013-08-09 06:51:00,59.1,58.2,30.09,NW,324,0.0,0.0,97,0.00,,,0.00,WUHU216DAVISVP2,2013-08-09 11:51:00,
2013-08-09 06:56:00,59.0,58.1,30.09,NW,323,0.0,0.0,97,0.00,,,0.00,WUHU216DAVISVP2,2013-08-09 11:56:00,
2013-08-09 07:01:00,59.2,58.3,30.09,NW,324,0.0,0.0,97,0.00,,,0.00,WUHU216DAVISVP2,2013-08-09 12:01:00,
2013-08-09 07:06:00,59.2,58.3,30.09,NW,323,0.0,0.0,97,0.00,,,0.00,WUHU216DAVISVP2,2013-08-09 12:06:00,
2013-08-09 07:11:00,59.2,58.3,30.09,NW,324,0.0,0.0,97,0.00,,,0.00,WUHU216DAVISVP2,2013-08-09 12:11:00,
2013-08-09 07:16:00,59.3,58.4,30.09,NW,323,0.0,0.0,97,0.00,,,0.00,WUHU216DAVISVP2,2013-08-09 12:16:00,
2013-08-09 07:21:00,59.4,58.5,30.09,NW,326,0.0,0.0,97,0.00,,,0.00,WUHU216DAVISVP2,2013-08-09 12:21:00,
2013-08-09 07:26:00,59.5,58.6,30.10,NW,324,0.0,0.0,97,0.00,,,0.00,WUHU216DAVISVP2,2013-08-09 12:26:00,
2013-08-09 07:31:00,59.8,58.9,30.10,NW,324,0.0,0.0,97,0.00,,,0.00,WUHU216DAVISVP2,2013-08-09 12:31:00,
2013-08-09 07:36:00,60.2,59.3,30.10,NW,324,0.0,0.0,97,0.00,,,0.00,WUHU216DAVISVP2,2013-08-09 12:36:00,
2013-08-09 07:41:00,60.5,59.3,30.10,NW,323,0.0,0.0,96,0.00,,,0.00,WUHU216DAVISVP2,2013-08-09 12:41:00,
2013-08-09 07:46:00,60.7,59.5,30.10,NW,323,0.0,0.0,96,0.01,,,0.01,WUHU216DAVISVP2,2013-08-09 12:46:00,
2013-08-09 07:51:00,61.1,59.9,30.10,NW,323,0.0,0.0,96,0.01,,,0.01,WUHU216DAVISVP2,2013-08-09 12:51:00,
2013-08-09 07:56:00,61.5,60.3,30.11,NW,322,0.0,0.0,96,0.01,,,0.01,WUHU216DAVISVP2,2013-08-09 12:56:00,
2013-08-09 08:01:00,61.8,60.3,30.11,NW,322,0.0,0.0,95,0.01,,,0.01,WUHU216DAVISVP2,2013-08-09 13:01:00,
2013-08-09 08:06:00,62.3,60.5,30.11,WNW,294,0.0,0.0,94,0.01,,,0.01,WUHU216DAVISVP2,2013-08-09 13:06:00,
2013-08-09 08:11:00,62.6,60.5,30.12,WNW,291,0.0,0.0,93,0.01,,,0.01,WUHU216DAVISVP2,2013-08-09 13:11:00,
2013-08-09 08:16:00,63.2,60.5,30.12,WNW,291,0.0,0.0,91,0.01,,,0.01,WUHU216DAVISVP2,2013-08-09 13:16:00,
2013-08-09 08:21:00,63.6,60.9,30.12,WNW,292,0.0,0.0,91,0.01,,,0.01,WUHU216DAVISVP2,2013-08-09 13:21:00,
2013-08-09 08:26:00,63.7,60.7,30.11,NW,304,0.0,1.0,90,0.01,,,0.01,WUHU216DAVISVP2,2013-08-09 13:26:00,
2013-08-09 08:31:00,64.1,60.8,30.11,NW,308,0.0,1.0,89,0.01,,,0.01,WUHU216DAVISVP2,2013-08-09 13:31:00,
2013-08-09 08:36:00,64.9,60.9,30.11,East,87,0.0,1.0,87,0.01,,,0.01,WUHU216DAVISVP2,2013-08-09 13:36:00,
2013-08-09 08:41:00,65.5,60.9,30.12,NW,321,0.0,1.0,85,0.01,,,0.01,WUHU216DAVISVP2,2013-08-09 13:41:00,
2013-08-09 08:46:00,65.2,60.3,30.12,NW,321,0.0,0.0,84,0.00,,,0.01,WUHU216DAVISVP2,2013-08-09 13:46:00,
2013-08-09 08:51:00,65.1,60.2,30.12,NW,321,0.0,0.0,84,0.00,,,0.01,WUHU216DAVISVP2,2013-08-09 13:51:00,
2013-08-09 08:56:00,65.1,60.2,30.12,WNW,283,0.0,0.0,84,0.00,,,0.01,WUHU216DAVISVP2,2013-08-09 13:56:00,
2013-08-09 09:01:00,65.5,60.9,30.12,WNW,283,0.0,0.0,85,0.00,,,0.01,WUHU216DAVISVP2,2013-08-09 14:01:00,
2013-08-09 09:06:00,66.0,60.7,30.12,WNW,283,0.0,0.0,83,0.00,,,0.01,WUHU216DAVISVP2,2013-08-09 14:06:00,
2013-08-09 09:11:00,66.0,60.4,30.12,WNW,283,0.0,0.0,82,0.00,,,0.01,WUHU216DAVISVP2,2013-08-09 14:11:00,
2013-08-09 09:16:00,66.2,60.3,30.12,WNW,303,0.0,0.0,81,0.00,,,0.01,WUHU216DAVISVP2,2013-08-09 14:16:00,
2013-08-09 09:21:00,66.6,60.3,30.12,WNW,302,0.0,0.0,80,0.00,,,0.01,WUHU216DAVISVP2,2013-08-09 14:21:00,
2013-08-09 09:26:00,67.2,60.6,30.12,WNW,302,0.0,0.0,79,0.00,,,0.01,WUHU216DAVISVP2,2013-08-09 14:26:00,
2013-08-09 09:31:00,67.6,60.6,30.12,WNW,290,0.0,0.0,78,0.00,,,0.01,WUHU216DAVISVP2,2013-08-09 14:31:00,
2013-08-09 09:36:00,68.1,60.0,30.12,NW,310,0.0,1.0,75,0.00,,,0.01,WUHU216DAVISVP2,2013-08-09 14:36:00,
2013-08-09 09:41:00,69.2,59.4,30.12,ENE,73,0.0,3.0,71,0.00,,,0.01,WUHU216DAVISVP2,2013-08-09 14:41:00,
2013-08-09 09:46:00,70.5,58.6,30.12,ESE,108,0.0,3.0,66,0.00,,,0.01,WUHU216DAVISVP2,2013-08-09 14:46:00,
2013-08-09 09:51:00,71.1,58.3,30.12,East,91,1.0,3.0,64,0.00,,,0.01,WUHU216DAVISVP2,2013-08-09 14:51:00,
2013-08-09 09:56:00,70.9,57.7,30.12,North,355,0.0,3.0,63,0.00,,,0.01,WUHU216DAVISVP2,2013-08-09 14:56:00,
2013-08-09 10:01:00,71.1,57.9,30.12,East,82,0.0,3.0,63,0.00,,,0.01,WUHU216DAVISVP2,2013-08-09 15:01:00,
2013-08-09 10:06:00,71.1,57.0,30.12,ENE,72,1.0,4.0,61,0.00,,,0.01,WUHU216DAVISVP2,2013-08-09 15:06:00,
2013-08-09 10:11:00,71.1,56.5,30.12,ENE,75,1.0,4.0,60,0.00,,,0.01,WUHU216DAVISVP2,2013-08-09 15:11:00,
2013-08-09 10:16:00,71.8,58.3,30.12,ENE,67,0.0,4.0,62,0.00,,,0.01,WUHU216DAVISVP2,2013-08-09 15:16:00,
2013-08-09 10:21:00,72.6,58.1,30.12,NNW,329,0.0,4.0,60,0.00,,,0.01,WUHU216DAVISVP2,2013-08-09 15:21:00,
2013-08-09 10:26:00,73.1,56.6,30.12,ENE,77,0.0,4.0,56,0.00,,,0.01,WUHU216DAVISVP2,2013-08-09 15:26:00,
2013-08-09 10:31:00,73.3,57.3,30.12,East,79,1.0,3.0,57,0.00,,,0.01,WUHU216DAVISVP2,2013-08-09 15:31:00,
2013-08-09 10:36:00,73.4,57.4,30.12,East,94,0.0,3.0,57,0.00,,,0.01,WUHU216DAVISVP2,2013-08-09 15:36:00,
2013-08-09 10:41:00,73.9,57.4,30.12,East,79,0.0,3.0,56,0.00,,,0.01,WUHU216DAVISVP2,2013-08-09 15:41:00,
2013-08-09 10:46:00,73.6,57.6,30.12,West,270,0.0,3.0,57,0.00,,,0.01,WUHU216DAVISVP2,2013-08-09 15:46:00,
2013-08-09 10:51:00,73.4,57.4,30.13,ENE,75,0.0,3.0,57,0.00,,,0.01,WUHU216DAVISVP2,2013-08-09 15:51:00,
2013-08-09 10:56:00,74.0,58.5,30.13,NE,47,0.0,3.0,58,0.00,,,0.01,WUHU216DAVISVP2,2013-08-09 15:56:00,
2013-08-09 11:01:00,74.1,58.1,30.12,NNW,338,0.0,3.0,57,0.00,,,0.01,WUHU216DAVISVP2,2013-08-09 16:01:00,
2013-08-09 11:06:00,74.0,57.5,30.12,WNW,283,1.0,4.0,56,0.00,,,0.01,WUHU216DAVISVP2,2013-08-09 16:06:00,
2013-08-09 11:11:00,73.6,57.6,30.13,NW,310,0.0,4.0,57,0.00,,,0.01,WUHU216DAVISVP2,2013-08-09 16:11:00,
2013-08-09 11:16:00,73.5,57.0,30.13,WNW,291,0.0,4.0,56,0.00,,,0.01,WUHU216DAVISVP2,2013-08-09 16:16:00,
2013-08-09 11:21:00,74.0,57.0,30.12,West,277,1.0,4.0,55,0.00,,,0.01,WUHU216DAVISVP2,2013-08-09 16:21:00,
2013-08-09 11:26:00,74.1,56.5,30.12,WNW,284,0.0,3.0,54,0.00,,,0.01,WUHU216DAVISVP2,2013-08-09 16:26:00,
2013-08-09 11:31:00,74.6,57.0,30.12,WNW,284,0.0,3.0,54,0.00,,,0.01,WUHU216DAVISVP2,2013-08-09 16:31:00,
2013-08-09 11:36:00,75.0,56.8,30.13,NW,316,0.0,3.0,53,0.00,,,0.01,WUHU216DAVISVP2,2013-08-09 16:36:00,
2013-08-09 11:41:00,74.8,57.2,30.13,ESE,115,0.0,3.0,54,0.00,,,0.01,WUHU216DAVISVP2,2013-08-09 16:41:00,
2013-08-09 11:46:00,74.3,56.2,30.13,East,99,1.0,4.0,53,0.00,,,0.01,WUHU216DAVISVP2,2013-08-09 16:46:00,
2013-08-09 11:51:00,74.4,56.8,30.13,ENE,76,0.0,4.0,54,0.00,,,0.01,WUHU216DAVISVP2,2013-08-09 16:51:00,
2013-08-09 11:56:00,75.2,57.6,30.12,SSW,203,3.0,4.0,54,0.00,,,0.01,WUHU216DAVISVP2,2013-08-09 16:56:00,
2013-08-09 12:01:00,75.1,56.9,30.12,East,98,1.0,4.0,53,0.00,,,0.01,WUHU216DAVISVP2,2013-08-09 17:01:00,
2013-08-09 12:06:00,75.1,56.4,30.12,ENE,71,1.0,4.0,52,0.00,,,0.01,WUHU216DAVISVP2,2013-08-09 17:06:00,
2013-08-09 12:11:00,75.2,55.4,30.12,WNW,303,1.0,4.0,50,0.00,,,0.01,WUHU216DAVISVP2,2013-08-09 17:11:00,
2013-08-09 12:16:00,75.1,55.3,30.12,East,86,2.0,4.0,50,0.00,,,0.01,WUHU216DAVISVP2,2013-08-09 17:16:00,
2013-08-09 12:21:00,75.1,56.4,30.12,WNW,295,0.0,4.0,52,0.00,,,0.01,WUHU216DAVISVP2,2013-08-09 17:21:00,
2013-08-09 12:26:00,75.9,55.4,30.12,WNW,296,4.0,5.0,49,0.00,,,0.01,WUHU216DAVISVP2,2013-08-09 17:26:00,
2013-08-09 12:31:00,75.7,55.8,30.12,SE,140,0.0,5.0,50,0.00,,,0.01,WUHU216DAVISVP2,2013-08-09 17:31:00,
2013-08-09 12:36:00,76.4,55.3,30.12,WNW,284,2.0,5.0,48,0.00,,,0.01,WUHU216DAVISVP2,2013-08-09 17:36:00,
2013-08-09 12:41:00,77.0,55.8,30.12,NW,309,0.0,7.0,48,0.00,,,0.01,WUHU216DAVISVP2,2013-08-09 17:41:00,
2013-08-09 12:46:00,77.4,55.0,30.12,NNW,339,1.0,7.0,46,0.00,,,0.01,WUHU216DAVISVP2,2013-08-09 17:46:00,
2013-08-09 12:51:00,77.4,53.8,30.12,NW,316,2.0,7.0,44,0.00,,,0.01,WUHU216DAVISVP2,2013-08-09 17:51:00,
2013-08-09 12:56:00,77.5,53.9,30.12,North,357,3.0,7.0,44,0.00,,,0.01,WUHU216DAVISVP2,2013-08-09 17:56:00,
2013-08-09 13:01:00,77.9,54.2,30.12,North,4,3.0,8.0,44,0.00,,,0.01,WUHU216DAVISVP2,2013-08-09 18:01:00,
2013-08-09 13:06:00,77.6,54.6,30.12,North,352,1.0,8.0,45,0.00,,,0.01,WUHU216DAVISVP2,2013-08-09 18:06:00,
2013-08-09 13:11:00,77.9,54.8,30.12,West,262,1.0,8.0,45,0.00,,,0.01,WUHU216DAVISVP2,2013-08-09 18:11:00,
2013-08-09 13:16:00,78.1,56.2,30.12,WNW,302,3.0,8.0,47,0.00,,,0.01,WUHU216DAVISVP2,2013-08-09 18:16:00,
2013-08-09 13:21:00,77.7,55.3,30.12,NW,314,2.0,7.0,46,0.00,,,0.01,WUHU216DAVISVP2,2013-08-09 18:21:00,
2013-08-09 13:26:00,77.0,55.8,30.12,ESE,109,1.0,7.0,48,0.00,,,0.01,WUHU216DAVISVP2,2013-08-09 18:26:00,
2013-08-09 13:31:00,77.8,54.8,30.12,West,280,2.0,7.0,45,0.00,,,0.01,WUHU216DAVISVP2,2013-08-09 18:31:00,
2013-08-09 13:36:00,77.8,55.4,30.12,WNW,293,3.0,7.0,46,0.00,,,0.01,WUHU216DAVISVP2,2013-08-09 18:36:00,
2013-08-09 13:41:00,78.3,55.8,30.11,ENE,57,1.0,7.0,46,0.00,,,0.01,WUHU216DAVISVP2,2013-08-09 18:41:00,
2013-08-09 13:46:00,78.4,56.6,30.11,NW,305,1.0,7.0,47,0.00,,,0.01,WUHU216DAVISVP2,2013-08-09 18:46:00,
2013-08-09 13:51:00,78.7,56.2,30.11,West,275,2.0,8.0,46,0.00,,,0.01,WUHU216DAVISVP2,2013-08-09 18:51:00,
2013-08-09 13:56:00,78.4,54.7,30.11,West,274,4.0,8.0,44,0.00,,,0.01,WUHU216DAVISVP2,2013-08-09 18:56:00,
2013-08-09 14:01:00,79.3,56.1,30.11,WNW,292,0.0,8.0,45,0.00,,,0.01,WUHU216DAVISVP2,2013-08-09 19:01:00,
2013-08-09 14:06:00,79.6,53.8,30.11,NW,305,2.0,8.0,41,0.00,,,0.01,WUHU216DAVISVP2,2013-08-09 19:06:00,
2013-08-09 14:11:00,79.1,55.3,30.11,ENE,61,1.0,8.0,44,0.00,,,0.01,WUHU216DAVISVP2,2013-08-09 19:11:00,
2013-08-09 14:16:00,79.8,55.9,30.11,NW,319,4.0,5.0,44,0.00,,,0.01,WUHU216DAVISVP2,2013-08-09 19:16:00,
2013-08-09 14:21:00,79.6,54.4,30.11,NNE,22,1.0,5.0,42,0.00,,,0.01,WUHU216DAVISVP2,2013-08-09 19:21:00,
2013-08-09 14:26:00,79.9,56.0,30.11,NNW,333,1.0,5.0,44,0.00,,,0.01,WUHU216DAVISVP2,2013-08-09 19:26:00,
2013-08-09 14:31:00,79.8,55.3,30.11,SE,143,1.0,7.0,43,0.00,,,0.01,WUHU216DAVISVP2,2013-08-09 19:31:00,
2013-08-09 14:36:00,79.6,55.1,30.12,NW,305,3.0,7.0,43,0.00,,,0.01,WUHU216DAVISVP2,2013-08-09 19:36:00,
2013-08-09 14:41:00,78.8,55.0,30.12,North,3,1.0,7.0,44,0.00,,,0.01,WUHU216DAVISVP2,2013-08-09 19:41:00,
2013-08-09 14:46:00,79.3,56.1,30.11,SW,214,0.0,7.0,45,0.00,,,0.01,WUHU216DAVISVP2,2013-08-09 19:46:00,
2013-08-09 14:51:00,79.6,55.1,30.12,NE,55,1.0,7.0,43,0.00,,,0.01,WUHU216DAVISVP2,2013-08-09 19:51:00,
2013-08-09 14:56:00,79.6,55.8,30.12,North,1,0.0,7.0,44,0.00,,,0.01,WUHU216DAVISVP2,2013-08-09 19:56:00,
2013-08-09 15:01:00,79.6,55.1,30.12,NW,325,2.0,8.0,43,0.00,,,0.01,WUHU216DAVISVP2,2013-08-09 20:01:00,
2013-08-09 15:06:00,79.3,54.9,30.11,WNW,297,3.0,10.0,43,0.00,,,0.01,WUHU216DAVISVP2,2013-08-09 20:06:00,
2013-08-09 15:11:00,79.0,55.2,30.11,WNW,296,3.0,10.0,44,0.00,,,0.01,WUHU216DAVISVP2,2013-08-09 20:11:00,
2013-08-09 15:16:00,79.1,55.3,30.11,WNW,299,3.0,10.0,44,0.00,,,0.01,WUHU216DAVISVP2,2013-08-09 20:16:00,
2013-08-09 15:21:00,78.4,54.7,30.11,WNW,294,2.0,10.0,44,0.00,,,0.01,WUHU216DAVISVP2,2013-08-09 20:21:00,
2013-08-09 15:26:00,78.5,56.0,30.12,SW,229,0.0,8.0,46,0.00,,,0.01,WUHU216DAVISVP2,2013-08-09 20:26:00,
2013-08-09 15:31:00,79.1,56.6,30.12,NW,304,1.0,8.0,46,0.00,,,0.01,WUHU216DAVISVP2,2013-08-09 20:31:00,
2013-08-09 15:36:00,79.4,56.9,30.12,WSW,250,1.0,8.0,46,0.00,,,0.01,WUHU216DAVISVP2,2013-08-09 20:36:00,
2013-08-09 15:41:00,79.0,54.6,30.12,West,277,2.0,8.0,43,0.00,,,0.01,WUHU216DAVISVP2,2013-08-09 20:41:00,
2013-08-09 15:46:00,79.7,56.5,30.12,East,82,0.0,8.0,45,0.00,,,0.01,WUHU216DAVISVP2,2013-08-09 20:46:00,
2013-08-09 15:51:00,79.4,54.9,30.12,WNW,302,3.0,8.0,43,0.00,,,0.01,WUHU216DAVISVP2,2013-08-09 20:51:00,
2013-08-09 15:56:00,79.4,55.6,30.12,West,279,1.0,8.0,44,0.00,,,0.01,WUHU216DAVISVP2,2013-08-09 20:56:00,
2013-08-09 16:01:00,79.7,55.9,30.12,WNW,287,1.0,7.0,44,0.00,,,0.01,WUHU216DAVISVP2,2013-08-09 21:01:00,
2013-08-09 16:06:00,79.7,56.5,30.11,ENE,70,2.0,7.0,45,0.00,,,0.01,WUHU216DAVISVP2,2013-08-09 21:06:00,
2013-08-09 16:11:00,80.2,57.0,30.11,North,3,1.0,7.0,45,0.00,,,0.01,WUHU216DAVISVP2,2013-08-09 21:11:00,
2013-08-09 16:16:00,80.8,56.9,30.11,NW,315,1.0,7.0,44,0.00,,,0.01,WUHU216DAVISVP2,2013-08-09 21:16:00,
2013-08-09 16:21:00,81.0,55.7,30.11,ENE,64,2.0,7.0,42,0.00,,,0.01,WUHU216DAVISVP2,2013-08-09 21:21:00,
2013-08-09 16:26:00,80.9,56.9,30.11,WNW,303,3.0,5.0,44,0.00,,,0.01,WUHU216DAVISVP2,2013-08-09 21:26:00,
2013-08-09 16:31:00,80.4,55.8,30.11,WNW,285,3.0,7.0,43,0.00,,,0.01,WUHU216DAVISVP2,2013-08-09 21:31:00,
2013-08-09 16:36:00,80.8,54.9,30.11,NNW,345,3.0,7.0,41,0.00,,,0.01,WUHU216DAVISVP2,2013-08-09 21:36:00,
2013-08-09 16:41:00,81.1,55.8,30.11,WNW,303,1.0,7.0,42,0.00,,,0.01,WUHU216DAVISVP2,2013-08-09 21:41:00,
2013-08-09 16:46:00,80.2,55.0,30.11,NW,309,2.0,9.0,42,0.00,,,0.01,WUHU216DAVISVP2,2013-08-09 21:46:00,
2013-08-09 16:51:00,80.1,55.6,30.11,NW,308,3.0,9.0,43,0.00,,,0.01,WUHU216DAVISVP2,2013-08-09 21:51:00,
2013-08-09 16:56:00,79.8,55.3,30.11,NNW,330,2.0,10.0,43,0.00,,,0.01,WUHU216DAVISVP2,2013-08-09 21:56:00,
2013-08-09 17:01:00,79.9,55.4,30.11,WNW,288,4.0,10.0,43,0.00,,,0.01,WUHU216DAVISVP2,2013-08-09 22:01:00,
2013-08-09 17:06:00,80.0,54.2,30.11,NNW,335,3.0,10.0,41,0.00,,,0.01,WUHU216DAVISVP2,2013-08-09 22:06:00,
2013-08-09 17:11:00,80.0,54.8,30.11,North,9,0.0,10.0,42,0.00,,,0.01,WUHU216DAVISVP2,2013-08-09 22:11:00,
2013-08-09 17:16:00,80.2,55.0,30.11,NE,37,1.0,9.0,42,0.00,,,0.01,WUHU216DAVISVP2,2013-08-09 22:16:00,
2013-08-09 17:21:00,79.5,55.0,30.11,WNW,303,2.0,7.0,43,0.00,,,0.01,WUHU216DAVISVP2,2013-08-09 22:21:00,
2013-08-09 17:26:00,79.6,56.4,30.11,WSW,249,1.0,5.0,45,0.00,,,0.01,WUHU216DAVISVP2,2013-08-09 22:26:00,
2013-08-09 17:31:00,80.6,55.4,30.11,NW,323,0.0,5.0,42,0.00,,,0.01,WUHU216DAVISVP2,2013-08-09 22:31:00,
2013-08-09 17:36:00,80.5,53.2,30.11,WNW,286,4.0,7.0,39,0.00,,,0.01,WUHU216DAVISVP2,2013-08-09 22:36:00,
2013-08-09 17:41:00,79.8,53.9,30.11,WSW,251,3.0,7.0,41,0.00,,,0.01,WUHU216DAVISVP2,2013-08-09 22:41:00,
2013-08-09 17:46:00,79.8,55.3,30.11,NNW,347,0.0,7.0,43,0.00,,,0.01,WUHU216DAVISVP2,2013-08-09 22:46:00,
2013-08-09 17:51:00,80.4,55.2,30.11,WNW,295,3.0,7.0,42,0.00,,,0.01,WUHU216DAVISVP2,2013-08-09 22:51:00,
2013-08-09 17:56:00,79.9,54.8,30.11,WNW,285,2.0,7.0,42,0.00,,,0.01,WUHU216DAVISVP2,2013-08-09 22:56:00,
2013-08-09 18:01:00,80.1,54.9,30.11,NW,308,1.0,7.0,42,0.00,,,0.01,WUHU216DAVISVP2,2013-08-09 23:01:00,
2013-08-09 18:06:00,80.2,53.6,30.10,WNW,302,2.0,7.0,40,0.00,,,0.01,WUHU216DAVISVP2,2013-08-09 23:06:00,
2013-08-09 18:11:00,80.2,54.3,30.11,West,281,3.0,7.0,41,0.00,,,0.01,WUHU216DAVISVP2,2013-08-09 23:11:00,
2013-08-09 18:16:00,80.3,55.7,30.10,West,276,0.0,5.0,43,0.00,,,0.01,WUHU216DAVISVP2,2013-08-09 23:16:00,
2013-08-09 18:21:00,80.3,54.4,30.11,WNW,302,7.0,7.0,41,0.00,,,0.01,WUHU216DAVISVP2,2013-08-09 23:21:00,
2013-08-09 18:26:00,79.2,54.7,30.10,SSW,204,0.0,7.0,43,0.00,,,0.01,WUHU216DAVISVP2,2013-08-09 23:26:00,
2013-08-09 18:31:00,78.9,55.8,30.11,NW,320,1.0,7.0,45,0.00,,,0.01,WUHU216DAVISVP2,2013-08-09 23:31:00,
2013-08-09 18:36:00,78.6,55.5,30.10,SW,236,1.0,7.0,45,0.00,,,0.01,WUHU216DAVISVP2,2013-08-09 23:36:00,
2013-08-09 18:41:00,78.8,55.7,30.11,NW,320,1.0,4.0,45,0.00,,,0.01,WUHU216DAVISVP2,2013-08-09 23:41:00,
2013-08-09 18:46:00,78.9,55.8,30.11,WSW,250,1.0,4.0,45,0.00,,,0.01,WUHU216DAVISVP2,2013-08-09 23:46:00,
2013-08-09 18:51:00,78.8,56.3,30.11,WSW,258,0.0,4.0,46,0.00,,,0.01,WUHU216DAVISVP2,2013-08-09 23:51:00,
2013-08-09 18:56:00,78.9,55.8,30.11,West,280,0.0,4.0,45,0.00,,,0.01,WUHU216DAVISVP2,2013-08-09 23:56:00,
2013-08-09 19:01:00,78.3,55.2,30.10,WNW,301,0.0,4.0,45,0.00,,,0.01,WUHU216DAVISVP2,2013-08-10 00:01:00,
2013-08-09 19:06:00,78.0,55.6,30.11,West,264,1.0,3.0,46,0.00,,,0.01,WUHU216DAVISVP2,2013-08-10 00:06:00,
2013-08-09 19:11:00,77.9,56.7,30.10,WNW,293,0.0,3.0,48,0.00,,,0.01,WUHU216DAVISVP2,2013-08-10 00:11:00,
2013-08-09 19:16:00,77.6,55.8,30.11,WNW,300,0.0,3.0,47,0.00,,,0.01,WUHU216DAVISVP2,2013-08-10 00:16:00,
2013-08-09 19:21:00,77.5,55.7,30.11,NNW,332,0.0,1.0,47,0.00,,,0.01,WUHU216DAVISVP2,2013-08-10 00:21:00,
2013-08-09 19:26:00,77.8,56.6,30.11,NNW,330,0.0,1.0,48,0.00,,,0.01,WUHU216DAVISVP2,2013-08-10 00:26:00,
2013-08-09 19:31:00,78.0,56.2,30.11,NW,321,0.0,0.0,47,0.00,,,0.01,WUHU216DAVISVP2,2013-08-10 00:31:00,
2013-08-09 19:36:00,77.9,56.1,30.11,NW,321,0.0,0.0,47,0.00,,,0.01,WUHU216DAVISVP2,2013-08-10 00:36:00,
2013-08-09 19:41:00,77.4,56.2,30.11,NW,320,0.0,0.0,48,0.00,,,0.01,WUHU216DAVISVP2,2013-08-10 00:41:00,
2013-08-09 19:46:00,76.9,56.4,30.11,NW,320,0.0,0.0,49,0.00,,,0.01,WUHU216DAVISVP2,2013-08-10 00:46:00,
2013-08-09 19:51:00,76.2,55.1,30.11,SW,221,0.0,3.0,48,0.00,,,0.01,WUHU216DAVISVP2,2013-08-10 00:51:00,
2013-08-09 19:56:00,75.8,57.0,30.12,SW,221,0.0,3.0,52,0.00,,,0.01,WUHU216DAVISVP2,2013-08-10 00:56:00,
2013-08-09 20:01:00,75.5,56.8,30.12,West,261,0.0,3.0,52,0.00,,,0.01,WUHU216DAVISVP2,2013-08-10 01:01:00,
2013-08-09 20:06:00,75.2,56.9,30.12,West,261,0.0,3.0,53,0.00,,,0.01,WUHU216DAVISVP2,2013-08-10 01:06:00,
2013-08-09 20:11:00,74.8,57.0,30.12,West,261,0.0,1.0,54,0.00,,,0.01,WUHU216DAVISVP2,2013-08-10 01:11:00,
2013-08-09 20:16:00,74.4,57.3,30.12,West,261,0.0,1.0,55,0.00,,,0.01,WUHU216DAVISVP2,2013-08-10 01:16:00,
2013-08-09 20:21:00,74.1,57.1,30.12,West,261,0.0,1.0,55,0.00,,,0.01,WUHU216DAVISVP2,2013-08-10 01:21:00,
2013-08-09 20:26:00,73.7,57.2,30.12,West,261,0.0,1.0,56,0.00,,,0.01,WUHU216DAVISVP2,2013-08-10 01:26:00,
2013-08-09 20:31:00,73.4,56.9,30.12,West,261,0.0,0.0,56,0.00,,,0.01,WUHU216DAVISVP2,2013-08-10 01:31:00,
2013-08-09 20:36:00,73.2,57.2,30.13,East,89,0.0,1.0,57,0.00,,,0.01,WUHU216DAVISVP2,2013-08-10 01:36:00,
2013-08-09 20:41:00,73.0,57.5,30.13,East,89,0.0,1.0,58,0.00,,,0.01,WUHU216DAVISVP2,2013-08-10 01:41:00,
2013-08-09 20:46:00,72.8,57.3,30.13,East,89,0.0,1.0,58,0.00,,,0.01,WUHU216DAVISVP2,2013-08-10 01:46:00,
2013-08-09 20:51:00,72.5,57.5,30.13,East,89,0.0,1.0,59,0.00,,,0.01,WUHU216DAVISVP2,2013-08-10 01:51:00,
2013-08-09 20:56:00,72.3,57.8,30.13,East,89,0.0,1.0,60,0.00,,,0.01,WUHU216DAVISVP2,2013-08-10 01:56:00,
2013-08-09 21:01:00,72.0,58.0,30.13,East,89,0.0,1.0,61,0.00,,,0.01,WUHU216DAVISVP2,2013-08-10 02:01:00,
2013-08-09 21:06:00,71.5,57.5,30.13,East,89,0.0,0.0,61,0.00,,,0.01,WUHU216DAVISVP2,2013-08-10 02:06:00,
2013-08-09 21:11:00,71.1,57.6,30.14,East,89,0.0,0.0,62,0.00,,,0.01,WUHU216DAVISVP2,2013-08-10 02:11:00,
2013-08-09 21:16:00,70.7,58.1,30.13,East,89,0.0,0.0,64,0.00,,,0.01,WUHU216DAVISVP2,2013-08-10 02:16:00,
2013-08-09 21:21:00,70.4,57.8,30.14,East,89,0.0,0.0,64,0.00,,,0.01,WUHU216DAVISVP2,2013-08-10 02:21:00,
2013-08-09 21:26:00,70.2,58.1,30.14,East,89,0.0,1.0,65,0.00,,,0.01,WUHU216DAVISVP2,2013-08-10 02:26:00,
2013-08-09 21:31:00,70.0,57.7,30.14,East,89,0.0,1.0,65,0.00,,,0.01,WUHU216DAVISVP2,2013-08-10 02:31:00,
2013-08-09 21:36:00,69.9,58.0,30.14,East,89,0.0,1.0,66,0.00,,,0.01,WUHU216DAVISVP2,2013-08-10 02:36:00,
2013-08-09 21:41:00,69.8,58.5,30.15,East,89,0.0,1.0,67,0.00,,,0.01,WUHU216DAVISVP2,2013-08-10 02:41:00,
2013-08-09 21:46:00,69.7,58.4,30.15,East,89,0.0,1.0,67,0.00,,,0.01,WUHU216DAVISVP2,2013-08-10 02:46:00,
2013-08-09 21:51:00,69.6,58.3,30.15,East,89,0.0,0.0,67,0.00,,,0.01,WUHU216DAVISVP2,2013-08-10 02:51:00,
2013-08-09 21:56:00,69.5,58.7,30.15,East,89,0.0,0.0,68,0.00,,,0.01,WUHU216DAVISVP2,2013-08-10 02:56:00,
2013-08-09 22:01:00,69.4,58.6,30.15,East,89,0.0,0.0,68,0.00,,,0.01,WUHU216DAVISVP2,2013-08-10 03:01:00,
2013-08-09 22:06:00,69.3,58.3,30.15,East,89,0.0,0.0,68,0.00,,,0.01,WUHU216DAVISVP2,2013-08-10 03:06:00,
2013-08-09 22:11:00,69.1,58.1,30.15,East,89,0.0,0.0,68,0.00,,,0.01,WUHU216DAVISVP2,2013-08-10 03:11:00,
2013-08-09 22:16:00,68.7,58.7,30.15,East,89,0.0,0.0,70,0.00,,,0.01,WUHU216DAVISVP2,2013-08-10 03:16:00,
2013-08-09 22:21:00,68.5,58.9,30.15,East,89,0.0,0.0,71,0.00,,,0.01,WUHU216DAVISVP2,2013-08-10 03:21:00,
2013-08-09 22:26:00,68.5,58.5,30.15,East,89,0.0,0.0,70,0.00,,,0.01,WUHU216DAVISVP2,2013-08-10 03:26:00,
2013-08-09 22:31:00,68.5,58.5,30.15,East,89,0.0,0.0,70,0.00,,,0.01,WUHU216DAVISVP2,2013-08-10 03:31:00,
2013-08-09 22:36:00,68.4,58.8,30.15,East,89,0.0,0.0,71,0.00,,,0.01,WUHU216DAVISVP2,2013-08-10 03:36:00,
2013-08-09 22:41:00,68.2,58.6,30.15,East,89,0.0,0.0,71,0.00,,,0.01,WUHU216DAVISVP2,2013-08-10 03:41:00,
2013-08-09 22:46:00,67.9,58.1,30.15,East,89,0.0,0.0,71,0.00,,,0.01,WUHU216DAVISVP2,2013-08-10 03:46:00,
2013-08-09 22:51:00,67.6,58.2,30.15,East,89,0.0,0.0,72,0.00,,,0.01,WUHU216DAVISVP2,2013-08-10 03:51:00,
2013-08-09 22:56:00,67.5,58.7,30.15,East,89,0.0,1.0,73,0.00,,,0.01,WUHU216DAVISVP2,2013-08-10 03:56:00,
2013-08-09 23:01:00,67.5,58.3,30.16,East,89,0.0,1.0,72,0.00,,,0.01,WUHU216DAVISVP2,2013-08-10 04:01:00,
2013-08-09 23:06:00,67.6,58.4,30.16,East,89,0.0,1.0,72,0.00,,,0.01,WUHU216DAVISVP2,2013-08-10 04:06:00,
2013-08-09 23:11:00,67.5,58.3,30.16,East,89,0.0,1.0,72,0.00,,,0.01,WUHU216DAVISVP2,2013-08-10 04:11:00,
2013-08-09 23:16:00,67.4,58.2,30.16,East,89,0.0,1.0,72,0.00,,,0.01,WUHU216DAVISVP2,2013-08-10 04:16:00,
2013-08-09 23:21:00,67.3,57.7,30.16,East,89,0.0,1.0,71,0.00,,,0.01,WUHU216DAVISVP2,2013-08-10 04:21:00,
2013-08-09 23:26:00,67.2,57.5,30.16,East,89,0.0,1.0,71,0.00,,,0.01,WUHU216DAVISVP2,2013-08-10 04:26:00,
2013-08-09 23:31:00,67.0,57.4,30.16,East,88,0.0,1.0,71,0.00,,,0.01,WUHU216DAVISVP2,2013-08-10 04:31:00,
2013-08-09 23:36:00,66.9,57.7,30.17,East,94,0.0,1.0,72,0.00,,,0.01,WUHU216DAVISVP2,2013-08-10 04:36:00,
2013-08-09 23:41:00,66.7,57.5,30.16,East,94,1.0,1.0,72,0.00,,,0.01,WUHU216DAVISVP2,2013-08-10 04:41:00,
2013-08-09 23:46:00,66.5,57.2,30.17,SSE,167,0.0,1.0,72,0.00,,,0.01,WUHU216DAVISVP2,2013-08-10 04:46:00,
2013-08-09 23:51:00,66.3,57.0,30.17,ENE,77,0.0,1.0,72,0.00,,,0.01,WUHU216DAVISVP2,2013-08-10 04:51:00,
2013-08-09 23:56:00,66.1,57.3,30.17,East,94,1.0,1.0,73,0.00,,,0.01,WUHU216DAVISVP2,2013-08-10 04:56:00,